QPF
0.02 0.02 0.01 0.01 0.01 0.01 0.01 0.01 0.00 0.00 0.00 0.00 0.00 0.00 0.00 0.00 0.01 0.01 0.01 0.01 0.01 0.02 0.02 0.01 0.02 0.02 0.02 0.02 0.01 0.01 0.01 0.01 0.01 0.01 0.00 0.00 0.01 0.01 0.01 0.02 0.02 0.03 0.05 0.06
0.03 0.01 0.01 0.01 0.01 0.01 0.01 0.01 0.01 0.00 0.00 0.00 0.00 0.00 0.00 0.00 0.01 0.01 0.01 0.01 0.01 0.02 0.04 0.03 0.02 0.02 0.02 0.02 0.03 0.02 0.01 0.01 0.01 0.00 0.00 0.00 0.00 0.00 0.00 0.01 0.01 0.03 0.04 0.05
0.02 0.01 0.01 0.01 0.01 0.01 0.01 0.01 0.01 0.01 0.01 0.01 0.00 0.00 0.00 0.00 0.00 0.01 0.01 0.01 0.01 0.02 0.03 0.04 0.03 0.03 0.03 0.03 0.03 0.03 0.02 0.01 0.01 0.01 0.01 0.01 0.00 0.00 0.00 0.00 0.01 0.01 0.03 0.04
0.02 0.01 0.00 0.01 0.01 0.01 0.01 0.01 0.01 0.01 0.01 0.01 0.01 0.01 0.00 0.00 0.00 0.00 0.00 0.01 0.01 0.02 0.02 0.03 0.03 0.03 0.03 0.04 0.04 0.03 0.03 0.02 0.02 0.02 0.02 0.01 0.01 0.01 0.00 0.00 0.00 0.00 0.01 0.03
0.02 0.00 0.00 0.01 0.01 0.01 0.01 0.00 0.01 0.01 0.01 0.02 0.01 0.01 0.00 0.00 0.00 0.00 0.00 0.00 0.00 0.01 0.01 0.02 0.02 0.02 0.02 0.02 0.04 0.04 0.03 0.03 0.03 0.03 0.03 0.03 0.02 0.02 0.01 0.01 0.01 0.01 0.01 0.02
0.01 0.00 0.00 0.00 0.00 0.01 0.01 0.01 0.01 0.01 0.02 0.02 0.01 0.01 0.00 0.00 0.00 0.00 0.00 0.00 0.00 0.00 0.00 0.00 0.00 0.01 0.01 0.02 0.03 0.03 0.03 0.03 0.03 0.03 0.04 0.04 0.03 0.03 0.02 0.02 0.01 0.01 0.01 0.01
0.02 0.00 0.00 0.00 0.00 0.00 0.02 0.03 0.04 0.03 0.03 0.01 0.00 0.00 0.00 0.00 0.00 0.00 0.00 0.00 0.00 0.00 0.01 0.00 0.00 0.01 0.01 0.02 0.02 0.02 0.02 0.02 0.02 0.02 0.03 0.03 0.04 0.05 0.04 0.03 0.03 0.03 0.02 0.02
0.02 0.01 0.00 0.00 0.00 0.01 0.01 0.03 0.03 0.02 0.01 0.00 0.00 0.00 0.00 0.00 0.00 0.00 0.00 0.00 0.00 0.01 0.01 0.01 0.00 0.01 0.02 0.02 0.01 0.01 0.02 0.02 0.02 0.02 0.02 0.02 0.03 0.04 0.05 0.06 0.06 0.06 0.05 0.04
0.01 0.01 0.01 0.01 0.01 0.01 0.01 0.02 0.01 0.02 0.01 0.01 0.00 0.00 0.00 0.00 0.00 0.00 0.00 0.00 0.00 0.01 0.01 0.01 0.01 0.01 0.01 0.01 0.00 0.00 0.01 0.01 0.01 0.01 0.02 0.02 0.02 0.02 0.03 0.04 0.04 0.05 0.05 0.05
0.01 0.01 0.01 0.01 0.01 0.02 0.01 0.02 0.02 0.03 0.02 0.01 0.00 0.00 0.00 0.00 0.00 0.00 0.00 0.00 0.00 0.01 0.01 0.01 0.01 0.00 0.00 0.00 0.00 0.01 0.01 0.01 0.00 0.01 0.01 0.01 0.02 0.02 0.02 0.02 0.02 0.03 0.03 0.04
0.01 0.01 0.01 0.01 0.02 0.03 0.02 0.02 0.02 0.02 0.02 0.02 0.01 0.00 0.00 0.00 0.00 0.00 0.00 0.00 0.00 0.00 0.00 0.00 0.00 0.00 0.00 0.00 0.01 0.01 0.01 0.00 0.00 0.00 0.01 0.01 0.02 0.02 0.03 0.02 0.02 0.02 0.02 0.02
0.01 0.01 0.01 0.01 0.01 0.01 0.03 0.03 0.03 0.03 0.02 0.01 0.01 0.00 0.00 0.00 0.00 0.00 0.00 0.00 0.00 0.00 0.00 0.00 0.00 0.00 0.00 0.00 0.00 0.00 0.00 0.00 0.00 0.00 0.01 0.01 0.02 0.02 0.02 0.02 0.02 0.02 0.03 0.03
0.01 0.01 0.01 0.01 0.01 0.01 0.01 0.02 0.03 0.03 0.03 0.02 0.01 0.00 0.00 0.00 0.00 0.00 0.00 0.00 0.00 0.00 0.00 0.00 0.01 0.01 0.01 0.01 0.01 0.01 0.00 0.01 0.01 0.01 0.01 0.01 0.01 0.01 0.01 0.01 0.01 0.02 0.02 0.03
0.02 0.02 0.01 0.01 0.00 0.01 0.01 0.01 0.02 0.03 0.03 0.01 0.01 0.00 0.00 0.00 0.00 0.00 0.00 0.00 0.00 0.00 0.01 0.00 0.01 0.01 0.01 0.01 0.01 0.01 0.00 0.00 0.01 0.01 0.01 0.01 0.01 0.01 0.01 0.01 0.01 0.01 0.02 0.02
0.02 0.02 0.00 0.00 0.00 0.00 0.00 0.01 0.01 0.02 0.01 0.01 0.00 0.00 0.00 0.00 0.00 0.00 0.00 0.00 0.00 0.01 0.01 0.01 0.01 0.01 0.01 0.02 0.03 0.02 0.01 0.01 0.01 0.01 0.01 0.01 0.01 0.01 0.01 0.01 0.01 0.01 0.01 0.01
0.02 0.02 0.01 0.00 0.00 0.00 0.00 0.00 0.00 0.00 0.01 0.00 0.00 0.00 0.00 0.00 0.00 0.00 0.00 0.01 0.01 0.01 0.01 0.01 0.01 0.01 0.01 0.02 0.02 0.01 0.01 0.01 0.01 0.01 0.01 0.01 0.01 0.01 0.01 0.01 0.01 0.01 0.01 0.01
0.02 0.02 0.02 0.01 0.00 0.01 0.01 0.00 0.00 0.00 0.01 0.00 0.00 0.00 0.00 0.00 0.00 0.00 0.01 0.01 0.01 0.01 0.01 0.01 0.01 0.01 0.01 0.02 0.01 0.01 0.01 0.01 0.01 0.01 0.01 0.01 0.01 0.01 0.01 0.01 0.01 0.01 0.01 0.01
0.03 0.03 0.03 0.02 0.01 0.01 0.00 0.00 0.00 0.01 0.01 0.01 0.01 0.01 0.01 0.01 0.01 0.01 0.00 0.00 0.00 0.00 0.01 0.01 0.01 0.02 0.01 0.01 0.01 0.01 0.01 0.01 0.01 0.01 0.01 0.01 0.01 0.01 0.01 0.01 0.01 0.01 0.01 0.01
0.01 0.02 0.04 0.04 0.02 0.01 0.00 0.00 0.00 0.01 0.01 0.01 0.00 0.00 0.00 0.00 0.00 0.00 0.00 0.00 0.00 0.00 0.01 0.01 0.01 0.01 0.01 0.00 0.00 0.00 0.00 0.01 0.01 0.01 0.01 0.01 0.01 0.01 0.01 0.01 0.01 0.01 0.01 0.00
0.01 0.02 0.04 0.04 0.03 0.01 0.01 0.01 0.00 0.01 0.01 0.00 0.00 0.00 0.00 0.00 0.00 0.00 0.00 0.00 0.00 0.00 0.00 0.00 0.00 0.00 0.00 0.00 0.00 0.00 0.00 0.01 0.01 0.01 0.01 0.01 0.01 0.01 0.01 0.01 0.01 0.01 0.00 0.00
0.01 0.02 0.03 0.03 0.03 0.01 0.01 0.00 0.00 0.01 0.01 0.00 0.00 0.00 0.01 0.01 0.01 0.00 0.00 0.00 0.00 0.00 0.00 0.00 0.00 0.00 0.00 0.00 0.00 0.00 0.00 0.01 0.01 0.01 0.01 0.01 0.01 0.01 0.01 0.01 0.01 0.01 0.00 0.00
0.01 0.01 0.02 0.02 0.03 0.01 0.00 0.00 0.00 0.00 0.00 0.00 0.00 0.00 0.00 0.00 0.00 0.00 0.00 0.00 0.00 0.00 0.00 0.00 0.00 0.00 0.00 0.00 0.00 0.00 0.00 0.01 0.01 0.01 0.01 0.01 0.01 0.01 0.01 0.01 0.01 0.01 0.01 0.00
0.00 0.01 0.01 0.01 0.01 0.01 0.00 0.00 0.00 0.00 0.00 0.00 0.00 0.00 0.00 0.00 0.00 0.00 0.00 0.00 0.01 0.00 0.00 0.00 0.00 0.00 0.00 0.00 0.00 0.00 0.00 0.01 0.01 0.01 0.01 0.01 0.01 0.01 0.01 0.01 0.00 0.00 0.01 0.01
0.00 0.01 0.01 0.01 0.01 0.01 0.00 0.00 0.00 0.00 0.00 0.00 0.00 0.00 0.00 0.00 0.00 0.01 0.01 0.01 0.00 0.00 0.00 0.00 0.00 0.00 0.00 0.00 0.00 0.00 0.00 0.01 0.01 0.01 0.01 0.01 0.01 0.01 0.01 0.01 0.00 0.00 0.01 0.01
0.00 0.01 0.01 0.01 0.00 0.00 0.00 0.00 0.00 0.00 0.00 0.00 0.00 0.00 0.00 0.00 0.01 0.01 0.01 0.00 0.00 0.00 0.00 0.00 0.00 0.00 0.00 0.00 0.00 0.01 0.01 0.01 0.01 0.01 0.01 0.01 0.01 0.01 0.01 0.01 0.01 0.01 0.01 0.01
0.01 0.01 0.01 0.01 0.01 0.01 0.01 0.00 0.00 0.01 0.00 0.00 0.00 0.00 0.00 0.00 0.01 0.01 0.00 0.00 0.00 0.00 0.01 0.00 0.00 0.00 0.00 0.00 0.00 0.00 0.01 0.01 0.01 0.01 0.01 0.01 0.01 0.01 0.01 0.01 0.01 0.01 0.01 0.00
MSLP
1019.05 1019.67 1020.24 1020.74 1021.16 1021.51 1021.78 1021.98 1022.10 1022.14 1022.10 1021.96 1021.74 1021.46 1021.12 1020.77 1020.44 1020.15 1019.93 1019.79 1019.73 1019.75 1019.83 1019.96 1020.12 1020.31 1020.53 1020.78 1021.07 1021.41 1021.79 1022.22 1022.68 1023.15 1023.63 1024.09 1024.51 1024.87 1025.18 1025.42 1025.62 1025.79 1025.93 1026.07
1019.99 1020.53 1021.00 1021.40 1021.73 1022.01 1022.25 1022.45 1022.60 1022.67 1022.64 1022.50 1022.23 1021.85 1021.39 1020.88 1020.39 1019.96 1019.62 1019.40 1019.31 1019.32 1019.42 1019.58 1019.76 1019.97 1020.18 1020.42 1020.68 1020.99 1021.36 1021.79 1022.27 1022.77 1023.29 1023.78 1024.23 1024.61 1024.92 1025.17 1025.36 1025.53 1025.68 1025.83
1020.80 1021.26 1021.63 1021.93 1022.20 1022.45 1022.69 1022.92 1023.11 1023.21 1023.19 1023.02 1022.68 1022.19 1021.57 1020.91 1020.25 1019.68 1019.24 1018.96 1018.84 1018.87 1019.01 1019.21 1019.44 1019.67 1019.89 1020.11 1020.35 1020.63 1020.98 1021.39 1021.86 1022.37 1022.89 1023.39 1023.84 1024.23 1024.54 1024.78 1024.98 1025.16 1025.33 1025.52
1021.43 1021.80 1022.09 1022.33 1022.57 1022.83 1023.11 1023.40 1023.65 1023.80 1023.79 1023.57 1023.14 1022.52 1021.75 1020.91 1020.09 1019.39 1018.86 1018.54 1018.43 1018.48 1018.67 1018.93 1019.20 1019.45 1019.67 1019.87 1020.08 1020.32 1020.62 1020.99 1021.43 1021.92 1022.42 1022.90 1023.33 1023.70 1024.01 1024.25 1024.47 1024.67 1024.88 1025.12
1021.86 1022.14 1022.37 1022.60 1022.87 1023.19 1023.56 1023.94 1024.27 1024.46 1024.45 1024.19 1023.66 1022.89 1021.96 1020.95 1020.00 1019.18 1018.58 1018.23 1018.13 1018.22 1018.46 1018.76 1019.06 1019.32 1019.53 1019.70 1019.86 1020.04 1020.27 1020.58 1020.96 1021.40 1021.85 1022.29 1022.70 1023.04 1023.33 1023.58 1023.82 1024.06 1024.32 1024.62
1022.08 1022.31 1022.52 1022.78 1023.12 1023.55 1024.05 1024.55 1024.96 1025.21 1025.19 1024.87 1024.23 1023.33 1022.24 1021.09 1020.00 1019.10 1018.44 1018.08 1017.98 1018.11 1018.38 1018.70 1019.01 1019.26 1019.44 1019.55 1019.63 1019.73 1019.89 1020.12 1020.43 1020.79 1021.19 1021.58 1021.94 1022.26 1022.54 1022.80 1023.06 1023.35 1023.68 1024.05
1022.14 1022.34 1022.58 1022.91 1023.37 1023.94 1024.59 1025.22 1025.73 1026.01 1025.98 1025.59 1024.85 1023.81 1022.58 1021.30 1020.11 1019.13 1018.44 1018.06 1017.98 1018.12 1018.40 1018.73 1019.02 1019.22 1019.33 1019.36 1019.36 1019.37 1019.43 1019.58 1019.81 1020.10 1020.44 1020.78 1021.10 1021.40 1021.67 1021.94 1022.23 1022.57 1022.97 1023.42
1022.10 1022.30 1022.60 1023.04 1023.64 1024.37 1025.16 1025.91 1026.50 1026.80 1026.74 1026.27 1025.41 1024.25 1022.90 1021.51 1020.25 1019.22 1018.51 1018.13 1018.05 1018.20 1018.47 1018.77 1019.00 1019.14 1019.16 1019.09 1018.99 1018.90 1018.87 1018.94 1019.10 1019.34 1019.63 1019.93 1020.22 1020.50 1020.77 1021.05 1021.37 1021.76 1022.21 1022.73
1022.03 1022.26 1022.64 1023.21 1023.95 1024.82 1025.74 1026.58 1027.20 1027.49 1027.36 1026.80 1025.83 1024.55 1023.11 1021.65 1020.34 1019.29 1018.58 1018.21 1018.13 1018.27 1018.51 1018.75 1018.90 1018.94 1018.86 1018.69 1018.49 1018.32 1018.22 1018.23 1018.34 1018.54 1018.79 1019.07 1019.34 1019.61 1019.88 1020.17 1020.51 1020.94 1021.44 1022.02
1021.99 1022.27 1022.75 1023.43 1024.29 1025.26 1026.25 1027.12 1027.72 1027.95 1027.73 1027.06 1025.98 1024.62 1023.10 1021.61 1020.29 1019.26 1018.57 1018.21 1018.14 1018.25 1018.45 1018.61 1018.68 1018.62 1018.44 1018.17 1017.89 1017.64 1017.49 1017.47 1017.55 1017.74 1017.98 1018.25 1018.52 1018.78 1019.04 1019.34 1019.69 1020.13 1020.66 1021.28
1022.03 1022.38 1022.93 1023.69 1024.62 1025.63 1026.62 1027.44 1027.96 1028.08 1027.74 1026.95 1025.78 1024.35 1022.82 1021.34 1020.06 1019.07 1018.43 1018.11 1018.04 1018.14 1018.27 1018.36 1018.34 1018.18 1017.91 1017.56 1017.21 1016.93 1016.76 1016.72 1016.81 1017.00 1017.25 1017.52 1017.78 1018.04 1018.29 1018.58 1018.93 1019.36 1019.90 1020.53
1022.17 1022.58 1023.19 1023.98 1024.91 1025.88 1026.79 1027.49 1027.86 1027.83 1027.35 1026.45 1025.22 1023.77 1022.26 1020.84 1019.65 1018.75 1018.18 1017.91 1017.86 1017.94 1018.03 1018.04 1017.93 1017.69 1017.34 1016.93 1016.55 1016.24 1016.07 1016.04 1016.15 1016.35 1016.61 1016.89 1017.15 1017.40 1017.64 1017.90 1018.23 1018.65 1019.18 1019.81
1022.42 1022.87 1023.49 1024.25 1025.11 1025.96 1026.71 1027.23 1027.41 1027.20 1026.58 1025.60 1024.33 1022.92 1021.49 1020.19 1019.12 1018.35 1017.89 1017.68 1017.66 1017.72 1017.76 1017.71 1017.52 1017.21 1016.80 1016.36 1015.95 1015.64 1015.48 1015.47 1015.59 1015.81 1016.08 1016.36 1016.62 1016.85 1017.07 1017.31 1017.61 1018.01 1018.52 1019.13
1022.76 1023.22 1023.79 1024.47 1025.18 1025.85 1026.37 1026.66 1026.63 1026.24 1025.51 1024.48 1023.24 1021.91 1020.62 1019.48 1018.59 1017.97 1017.63 1017.49 1017.49 1017.54 1017.53 1017.42 1017.16 1016.79 1016.34 1015.87 1015.46 1015.16 1015.01 1015.02 1015.15 1015.37 1015.64 1015.91 1016.16 1016.37 1016.57 1016.79 1017.08 1017.45 1017.94 1018.54
1023.15 1023.58 1024.06 1024.58 1025.09 1025.52 1025.79 1025.83 1025.59 1025.05 1024.24 1023.22 1022.06 1020.87 1019.77 1018.84 1018.15 1017.69 1017.46 1017.40 1017.42 1017.43 1017.38 1017.19 1016.88 1016.46 1015.98 1015.49 1015.08 1014.79 1014.64 1014.65 1014.79 1015.00 1015.26 1015.51 1015.74 1015.94 1016.13 1016.34 1016.61 1016.98 1017.46 1018.06
1023.55 1023.89 1024.24 1024.57 1024.83 1025.00 1025.00 1024.81 1024.39 1023.74 1022.91 1021.94 1020.92 1019.93 1019.05 1018.35 1017.85 1017.56 1017.43 1017.41 1017.42 1017.39 1017.27 1017.02 1016.64 1016.17 1015.66 1015.17 1014.76 1014.47 1014.33 1014.33 1014.45 1014.64 1014.87 1015.11 1015.32 1015.51 1015.71 1015.93 1016.22 1016.60 1017.10 1017.70
1023.87 1024.10 1024.28 1024.38 1024.40 1024.30 1024.06 1023.66 1023.11 1022.41 1021.62 1020.77 1019.93 1019.17 1018.52 1018.04 1017.73 1017.56 1017.49 1017.48 1017.45 1017.35 1017.14 1016.81 1016.37 1015.86 1015.32 1014.83 1014.42 1014.14 1014.00 1013.99 1014.08 1014.25 1014.45 1014.67 1014.87 1015.07 1015.29 1015.55 1015.89 1016.31 1016.84 1017.46
1024.04 1024.14 1024.12 1024.01 1023.79 1023.45 1023.01 1022.47 1021.84 1021.16 1020.46 1019.77 1019.14 1018.60 1018.18 1017.89 1017.71 1017.62 1017.56 1017.51 1017.39 1017.19 1016.88 1016.46 1015.95 1015.41 1014.87 1014.38 1013.99 1013.72 1013.59 1013.57 1013.65 1013.79 1013.98 1014.18 1014.39 1014.62 1014.88 1015.20 1015.60 1016.08 1016.66 1017.31
1024.00 1023.95 1023.75 1023.43 1023.01 1022.49 1021.91 1021.29 1020.66 1020.04 1019.47 1018.96 1018.54 1018.21 1017.97 1017.81 1017.71 1017.63 1017.53 1017.38 1017.15 1016.82 1016.39 1015.88 1015.32 1014.76 1014.23 1013.77 1013.41 1013.18 1013.07 1013.06 1013.13 1013.27 1013.44 1013.65 1013.88 1014.15 1014.48 1014.87 1015.35 1015.90 1016.54 1017.22
1023.71 1023.51 1023.16 1022.68 1022.10 1021.47 1020.82 1020.19 1019.60 1019.09 1018.66 1018.33 1018.09 1017.92 1017.81 1017.73 1017.63 1017.50 1017.30 1017.02 1016.64 1016.17 1015.62 1015.03 1014.44 1013.88 1013.38 1012.98 1012.69 1012.51 1012.44 1012.46 1012.55 1012.70 1012.88 1013.11 1013.38 1013.70 1014.09 1014.56 1015.12 1015.75 1016.43 1017.14
1023.17 1022.84 1022.37 1021.78 1021.12 1020.44 1019.79 1019.20 1018.70 1018.31 1018.04 1017.86 1017.75 1017.69 1017.64 1017.56 1017.41 1017.17 1016.83 1016.39 1015.85 1015.24 1014.60 1013.95 1013.35 1012.82 1012.39 1012.07 1011.86 1011.76 1011.76 1011.83 1011.96 1012.13 1012.34 1012.60 1012.91 1013.29 1013.75 1014.29 1014.91 1015.59 1016.31 1017.03
1022.41 1021.99 1021.44 1020.81 1020.14 1019.48 1018.88 1018.38 1017.99 1017.74 1017.59 1017.52 1017.50 1017.48 1017.42 1017.28 1017.03 1016.65 1016.15 1015.54 1014.85 1014.13 1013.41 1012.74 1012.15 1011.68 1011.33 1011.11 1011.01 1011.01 1011.09 1011.22 1011.40 1011.61 1011.86 1012.15 1012.50 1012.93 1013.44 1014.03 1014.70 1015.41 1016.14 1016.85
1021.53 1021.07 1020.50 1019.88 1019.26 1018.67 1018.17 1017.79 1017.52 1017.37 1017.31 1017.31 1017.32 1017.28 1017.16 1016.91 1016.52 1015.99 1015.33 1014.58 1013.77 1012.96 1012.20 1011.53 1010.99 1010.60 1010.35 1010.24 1010.25 1010.34 1010.50 1010.70 1010.93 1011.18 1011.46 1011.79 1012.17 1012.63 1013.17 1013.79 1014.47 1015.19 1015.91 1016.60
1020.67 1020.20 1019.68 1019.13 1018.60 1018.12 1017.74 1017.47 1017.31 1017.24 1017.23 1017.23 1017.21 1017.11 1016.88 1016.51 1015.97 1015.30 1014.50 1013.63 1012.75 1011.89 1011.13 1010.50 1010.02 1009.71 1009.56 1009.55 1009.64 1009.82 1010.04 1010.29 1010.55 1010.83 1011.14 1011.49 1011.89 1012.37 1012.92 1013.55 1014.23 1014.93 1015.63 1016.27
1019.97 1019.55 1019.10 1018.66 1018.25 1017.91 1017.64 1017.47 1017.38 1017.34 1017.33 1017.30 1017.20 1016.99 1016.64 1016.13 1015.47 1014.68 1013.79 1012.86 1011.93 1011.08 1010.34 1009.76 1009.35 1009.11 1009.03 1009.09 1009.24 1009.46 1009.72 1009.99 1010.27 1010.56 1010.87 1011.23 1011.64 1012.12 1012.67 1013.29 1013.95 1014.62 1015.28 1015.88
1019.59 1019.24 1018.90 1018.58 1018.30 1018.07 1017.90 1017.79 1017.73 1017.68 1017.62 1017.50 1017.29 1016.96 1016.49 1015.87 1015.11 1014.23 1013.30 1012.35 1011.44 1010.61 1009.92 1009.40 1009.04 1008.85 1008.81 1008.88 1009.05 1009.27 1009.51 1009.77 1010.04 1010.32 1010.63 1010.98 1011.39 1011.86 1012.41 1013.00 1013.63 1014.27 1014.89 1015.44
Thickness
5530 5524 5521 5525 5527 5530 5528 5527 5527 5532 5537 5536 5538 5544 5552 5553 5553 5555 5556 5558 5560 5563 5566 5567 5568 5569 5568 5568 5567 5567 5566 5565 5565 5564 5563 5562 5561 5561 5560 5561 5561 5561 5560 5560
5516 5515 5521 5522 5523 5522 5520 5518 5518 5522 5527 5527 5526 5533 5543 5544 5547 5550 5551 5552 5553 5555 5557 5558 5559 5559 5559 5559 5559 5558 5557 5557 5556 5556 5555 5554 5553 5551 5551 5550 5550 5550 5550 5550
5509 5512 5517 5517 5514 5513 5512 5510 5512 5513 5516 5515 5516 5527 5534 5539 5540 5543 5544 5545 5547 5548 5548 5549 5550 5550 5549 5549 5550 5550 5549 5548 5547 5546 5545 5543 5542 5541 5540 5540 5540 5540 5540 5540
5501 5505 5509 5508 5507 5508 5506 5508 5507 5507 5501 5496 5503 5503 5524 5527 5530 5535 5535 5533 5536 5538 5539 5540 5541 5540 5540 5540 5540 5540 5539 5538 5537 5536 5536 5534 5533 5532 5531 5531 5530 5530 5530 5529
5495 5498 5500 5501 5502 5501 5498 5497 5496 5495 5491 5485 5488 5489 5511 5516 5523 5528 5527 5526 5527 5529 5530 5532 5533 5533 5532 5530 5530 5529 5528 5527 5527 5526 5526 5525 5523 5522 5521 5521 5520 5520 5519 5519
5488 5491 5492 5494 5495 5494 5490 5485 5481 5473 5473 5474 5481 5480 5498 5504 5515 5519 5519 5518 5518 5519 5521 5522 5523 5522 5521 5520 5519 5518 5518 5518 5517 5516 5515 5515 5514 5512 5511 5510 5510 5509 5509 5509
5479 5483 5485 5487 5486 5484 5482 5473 5464 5462 5454 5465 5474 5473 5489 5503 5505 5507 5509 5509 5509 5509 5509 5511 5511 5512 5511 5511 5510 5509 5508 5508 5507 5506 5506 5505 5504 5503 5502 5502 5501 5500 5499 5498
5467 5469 5475 5477 5479 5475 5472 5471 5461 5459 5455 5458 5462 5465 5487 5496 5495 5496 5498 5499 5500 5500 5499 5500 5501 5501 5501 5500 5499 5499 5498 5498 5498 5497 5496 5496 5495 5494 5493 5492 5491 5490 5490 5489
5460 5464 5468 5469 5470 5471 5466 5459 5461 5448 5439 5442 5455 5461 5477 5489 5487 5487 5488 5490 5490 5490 5489 5489 5489 5490 5490 5490 5490 5489 5489 5488 5488 5487 5487 5486 5485 5485 5484 5483 5482 5481 5481 5480
5458 5453 5456 5458 5463 5461 5460 5453 5445 5442 5442 5446 5453 5455 5471 5482 5483 5481 5480 5480 5481 5480 5479 5479 5479 5479 5481 5481 5480 5479 5478 5478 5477 5477 5476 5476 5476 5475 5475 5473 5472 5472 5471 5470
5451 5443 5442 5446 5447 5448 5447 5445 5443 5436 5436 5440 5442 5464 5474 5475 5475 5473 5472 5471 5471 5470 5470 5469 5470 5470 5470 5470 5470 5469 5468 5468 5467 5467 5466 5466 5466 5465 5465 5464 5463 5462 5462 5461
5440 5432 5428 5433 5437 5438 5439 5439 5434 5436 5430 5424 5424 5453 5471 5464 5462 5461 5461 5463 5462 5461 5460 5460 5460 5460 5460 5460 5460 5460 5459 5458 5458 5458 5457 5456 5456 5455 5454 5454 5453 5453 5452 5452
5432 5425 5426 5433 5430 5424 5424 5426 5422 5420 5417 5409 5420 5452 5462 5454 5454 5453 5452 5452 5452 5452 5451 5450 5450 5450 5451 5451 5451 5451 5451 5450 5449 5449 5448 5447 5446 5445 5445 5444 5444 5444 5443 5442
5430 5417 5422 5431 5432 5422 5417 5418 5413 5413 5413 5411 5421 5442 5453 5452 5449 5446 5444 5443 5442 5443 5443 5442 5441 5441 5442 5442 5442 5442 5442 5441 5441 5440 5439 5438 5437 5437 5436 5435 5435 5435 5434 5433
5421 5412 5405 5409 5414 5413 5416 5416 5409 5409 5416 5418 5430 5430 5445 5445 5441 5439 5436 5435 5436 5436 5436 5435 5434 5433 5433 5433 5434 5434 5434 5433 5432 5431 5430 5429 5429 5428 5427 5426 5426 5425 5425 5424
5406 5402 5399 5403 5406 5403 5407 5413 5410 5409 5412 5413 5418 5427 5440 5435 5432 5430 5429 5428 5428 5430 5429 5428 5427 5426 5426 5426 5426 5425 5425 5425 5424 5423 5422 5421 5420 5419 5418 5418 5417 5417 5416 5415
5392 5392 5396 5399 5396 5399 5406 5415 5412 5409 5409 5411 5419 5433 5433 5429 5428 5426 5424 5423 5422 5423 5422 5421 5420 5419 5419 5417 5417 5416 5417 5416 5415 5415 5414 5413 5412 5411 5410 5409 5408 5408 5407 5406
5385 5383 5380 5383 5388 5399 5424 5415 5413 5411 5412 5409 5416 5422 5422 5422 5419 5416 5415 5414 5414 5415 5414 5413 5412 5411 5410 5410 5409 5408 5408 5407 5407 5406 5406 5405 5404 5403 5401 5400 5399 5398 5398 5397
5382 5379 5373 5374 5379 5391 5410 5410 5402 5402 5410 5410 5408 5412 5409 5408 5407 5411 5412 5408 5408 5408 5407 5406 5404 5403 5402 5401 5401 5400 5400 5399 5398 5398 5397 5396 5395 5394 5393 5392 5391 5390 5389 5389
5370 5370 5367 5364 5376 5389 5412 5407 5398 5400 5405 5411 5402 5402 5400 5398 5399 5410 5408 5404 5402 5401 5399 5398 5396 5395 5394 5394 5393 5393 5392 5391 5391 5391 5390 5388 5387 5386 5385 5384 5383 5382 5381 5381
5364 5360 5360 5360 5365 5382 5398 5393 5393 5397 5407 5405 5397 5396 5392 5390 5396 5399 5398 5396 5395 5393 5392 5391 5389 5387 5387 5386 5386 5385 5385 5384 5385 5384 5382 5381 5379 5378 5377 5375 5374 5373 5372 5372
5360 5355 5351 5353 5360 5383 5390 5383 5389 5397 5396 5393 5391 5389 5386 5385 5387 5388 5388 5388 5387 5385 5384 5383 5381 5380 5379 5378 5378 5377 5377 5378 5377 5376 5375 5374 5372 5371 5370 5367 5366 5364 5363 5363
5355 5363 5363 5366 5381 5386 5380 5382 5386 5384 5384 5385 5384 5383 5382 5381 5380 5381 5380 5379 5378 5377 5376 5375 5374 5373 5372 5371 5371 5370 5371 5371 5370 5369 5368 5367 5365 5363 5362 5360 5358 5356 5356 5355
5351 5351 5353 5356 5370 5375 5375 5376 5377 5377 5377 5379 5378 5377 5375 5375 5374 5373 5372 5371 5370 5370 5369 5368 5367 5366 5366 5365 5365 5364 5364 5364 5363 5361 5360 5359 5357 5356 5354 5353 5352 5351 5350 5349
5356 5344 5347 5353 5364 5369 5375 5373 5374 5374 5373 5372 5371 5371 5370 5368 5368 5366 5365 5364 5364 5364 5362 5361 5360 5360 5360 5359 5358 5358 5358 5357 5355 5354 5353 5352 5351 5349 5348 5347 5346 5345 5345 5344
5349 5348 5352 5365 5370 5367 5373 5373 5370 5367 5368 5367 5365 5364 5363 5362 5361 5360 5359 5358 5357 5356 5356 5354 5354 5354 5353 5352 5352 5352 5352 5351 5350 5349 5348 5346 5345 5343 5342 5341 5341 5340 5339 5339